| time (UTC) | temp C | wind direction | speed KPH | gust KPH | rain 1hr cm | rain 24hr cm | rain mn cm | humidity % | barometer mb |
| 20260507073100 | 27 | 340 | 0.0 | 4.8 | 0.00 | 0.00 | 0.00 | 90 | 1007.4 |
| 20260507071549 | 27 | 316 | 1.6 | 4.8 | 0.00 | 0.00 | 0.00 | 89 | 1007.4 |
| 20260507070134 | 28 | 321 | 1.6 | 4.8 | 0.00 | 0.00 | 0.00 | 86 | 1007.4 |
| 20260507064551 | 28 | 134 | 0.0 | 6.4 | 0.00 | 0.00 | 0.00 | 85 | 1007.4 |
| 20260507063100 | 28 | 0 | 0.0 | 3.2 | 0.00 | 0.00 | 0.00 | 85 | 1007.4 |
| 20260507061553 | 28 | 0 | 1.6 | 4.8 | 0.00 | 0.00 | 0.00 | 85 | 1007.5 |
| 20260507060050 | 29 | 103 | 1.6 | 6.4 | 0.00 | 0.00 | 0.00 | 84 | 1007.3 |
| 20260507054557 | 29 | 49 | 3.2 | 11.3 | 0.00 | 0.00 | 0.00 | 84 | 1007.6 |
| 20260507053053 | 30 | 96 | 1.6 | 9.7 | 0.00 | 0.00 | 0.00 | 82 | 1007.5 |
| 20260507051550 | 30 | 94 | 0.0 | 4.8 | 0.00 | 0.00 | 0.00 | 82 | 1007.5 |
| 20260507050053 | 30 | 67 | 3.2 | 6.4 | 0.00 | 0.00 | 0.00 | 82 | 1007.3 |
| 20260507044551 | 30 | 118 | 4.8 | 11.3 | 0.00 | 0.00 | 0.00 | 82 | 1007.2 |
| 20260507043048 | 30 | 63 | 3.2 | 11.3 | 0.00 | 0.00 | 0.00 | 82 | 1007.1 |
| 20260507041553 | 30 | 136 | 4.8 | 11.3 | 0.00 | 0.00 | 0.00 | 82 | 1007.2 |
| 20260507040055 | 30 | 90 | 3.2 | 9.7 | 0.00 | 0.00 | 0.00 | 82 | 1006.9 |
| 20260507034550 | 30 | 65 | 3.2 | 9.7 | 0.00 | 0.00 | 0.00 | 81 | 1007.0 |
| 20260507033050 | 30 | 92 | 1.6 | 8.0 | 0.00 | 0.00 | 0.00 | 81 | 1007.0 |
| 20260507031547 | 31 | 35 | 3.2 | 11.3 | 0.00 | 0.00 | 0.00 | 79 | 1007.0 |
| 20260507030058 | 31 | 87 | 3.2 | 11.3 | 0.00 | 0.00 | 0.00 | 78 | 1007.0 |
| 20260507024550 | 31 | 62 | 3.2 | 11.3 | 0.00 | 0.00 | 0.00 | 78 | 1006.6 |
| 20260507023052 | 32 | 0 | 3.2 | 9.7 | 0.00 | 0.00 | 0.00 | 78 | 1006.6 |
| 20260507021607 | 32 | 107 | 3.2 | 11.3 | 0.00 | 0.00 | 0.00 | 77 | 1006.5 |
| 20260507020053 | 32 | 93 | 3.2 | 9.7 | 0.00 | 0.00 | 0.00 | 77 | 1006.4 |
| 20260507014608 | 32 | 122 | 3.2 | 11.3 | 0.00 | 0.00 | 0.00 | 77 | 1006.0 |
| 20260507013052 | 32 | 98 | 3.2 | 9.7 | 0.00 | 0.00 | 0.00 | 77 | 1005.8 |
| 20260507011547 | 33 | 80 | 3.2 | 6.4 | 0.00 | 0.00 | 0.00 | 75 | 1005.7 |
| 20260507004549 | 33 | 86 | 3.2 | 9.7 | 0.00 | 0.00 | 0.00 | 71 | 1005.4 |
| 20260507003047 | 34 | 204 | 4.8 | 9.7 | 0.00 | 0.00 | 0.00 | 70 | 1005.2 |
| 20260507001551 | 35 | 95 | 3.2 | 9.7 | 0.00 | 0.00 | 0.00 | 69 | 1005.1 |
| 20260507000047 | 35 | 145 | 4.8 | 12.9 | 0.00 | 0.00 | 0.00 | 68 | 1005.1 |
| 20260506234548 | 36 | 109 | 6.4 | 14.5 | 0.00 | 0.00 | 0.00 | 67 | 1005.1 |
| 20260506233054 | 36 | 121 | 4.8 | 14.5 | 0.00 | 0.00 | 0.00 | 67 | 1005.1 |
| 20260506231547 | 36 | 65 | 6.4 | 17.7 | 0.00 | 0.00 | 0.00 | 69 | 1005.0 |
| 20260506224547 | 36 | 84 | 8.0 | 16.1 | 0.00 | 0.00 | 0.00 | 69 | 1004.8 |
| 20260506223052 | 36 | 93 | 6.4 | 16.1 | 0.00 | 0.00 | 0.00 | 69 | 1004.8 |
| 20260506221549 | 37 | 61 | 4.8 | 17.7 | 0.00 | 0.00 | 0.00 | 69 | 1004.8 |
| 20260506220052 | 36 | 127 | 9.7 | 19.3 | 0.00 | 0.00 | 0.00 | 69 | 1004.9 |
| 20260506214551 | 36 | 85 | 6.4 | 22.5 | 0.00 | 0.00 | 0.00 | 70 | 1004.9 |
| 20260506213048 | 37 | 116 | 8.0 | 16.1 | 0.00 | 0.00 | 0.00 | 70 | 1005.0 |
| 20260506211548 | 37 | 100 | 8.0 | 17.7 | 0.00 | 0.00 | 0.00 | 71 | 1005.2 |
| 20260506210050 | 37 | 130 | 8.0 | 17.7 | 0.00 | 0.00 | 0.00 | 71 | 1005.3 |
| 20260506204550 | 36 | 84 | 6.4 | 17.7 | 0.00 | 0.00 | 0.00 | 71 | 1005.5 |
| 20260506203053 | 36 | 51 | 9.7 | 17.7 | 0.00 | 0.00 | 0.00 | 71 | 1005.6 |
| 20260506201607 | 36 | 35 | 3.2 | 16.1 | 0.00 | 0.00 | 0.00 | 70 | 1005.9 |
| 20260506200048 | 36 | 89 | 6.4 | 19.3 | 0.00 | 0.00 | 0.00 | 70 | 1006.3 |
| 20260506194552 | 36 | 327 | 9.7 | 17.7 | 0.00 | 0.00 | 0.00 | 71 | 1006.5 |
| 20260506193053 | 36 | 15 | 6.4 | 17.7 | 0.00 | 0.00 | 0.00 | 70 | 1006.8 |
| 20260506191553 | 36 | 13 | 6.4 | 17.7 | 0.00 | 0.00 | 0.00 | 72 | 1007.1 |
| 20260506190050 | 35 | 24 | 12.9 | 22.5 | 0.00 | 0.00 | 0.00 | 74 | 1007.5 |
| 20260506184554 | 35 | 30 | 9.7 | 19.3 | 0.00 | 0.00 | 0.00 | 73 | 1007.9 |
| 20260506183048 | 35 | 87 | 12.9 | 20.9 | 0.00 | 0.00 | 0.00 | 75 | 1008.1 |
| 20260506181549 | 34 | 32 | 9.7 | 20.9 | 0.00 | 0.00 | 0.00 | 77 | 1008.2 |
| 20260506180049 | 35 | 33 | 6.4 | 19.3 | 0.00 | 0.00 | 0.00 | 76 | 1008.5 |
| 20260506174546 | 34 | 27 | 8.0 | 17.7 | 0.00 | 0.00 | 0.00 | 76 | 1008.7 |
| 20260506173105 | 33 | 63 | 11.3 | 19.3 | 0.00 | 0.00 | 0.00 | 78 | 1008.9 |
| 20260506171556 | 33 | 350 | 6.4 | 14.5 | 0.00 | 0.00 | 0.00 | 79 | 1009.0 |
| 20260506170053 | 33 | 117 | 4.8 | 14.5 | 0.00 | 0.00 | 0.00 | 78 | 1009.1 |
| 20260506164547 | 32 | 65 | 3.2 | 12.9 | 0.00 | 0.00 | 0.00 | 79 | 1009.3 |
| 20260506163103 | 32 | 63 | 4.8 | 14.5 | 0.00 | 0.00 | 0.00 | 80 | 1009.4 |
| 20260506161554 | 32 | 71 | 4.8 | 16.1 | 0.00 | 0.00 | 0.00 | 82 | 1009.4 |
| 20260506160051 | 31 | 140 | 4.8 | 12.9 | 0.00 | 0.00 | 0.00 | 83 | 1009.6 |
| 20260506154600 | 31 | 68 | 4.8 | 11.3 | 0.00 | 0.00 | 0.00 | 83 | 1009.6 |
| 20260506153049 | 31 | 24 | 3.2 | 11.3 | 0.00 | 0.00 | 0.00 | 84 | 1009.7 |
| 20260506151551 | 30 | 113 | 6.4 | 12.9 | 0.00 | 0.00 | 0.00 | 86 | 1009.8 |
| 20260506150048 | 30 | 64 | 3.2 | 12.9 | 0.00 | 0.00 | 0.00 | 86 | 1009.8 |
| 20260506144550 | 30 | 343 | 3.2 | 11.3 | 0.00 | 0.00 | 0.00 | 87 | 1009.7 |
| 20260506143051 | 28 | 88 | 4.8 | 16.1 | 0.00 | 0.00 | 0.00 | 88 | 1009.8 |
| 20260506141553 | 28 | 82 | 6.4 | 12.9 | 0.00 | 0.00 | 0.00 | 90 | 1009.8 |
| 20260506140059 | 27 | 109 | 6.4 | 16.1 | 0.00 | 0.00 | 0.00 | 91 | 1009.8 |
| 20260506134550 | 27 | 92 | 9.7 | 20.9 | 0.00 | 0.00 | 0.00 | 92 | 1009.6 |
| 20260506133059 | 27 | 122 | 6.4 | 17.7 | 0.00 | 0.00 | 0.00 | 92 | 1009.6 |
| 20260506131552 | 26 | 94 | 4.8 | 12.9 | 0.00 | 0.00 | 0.00 | 94 | 1009.6 |
| 20260506130056 | 26 | 99 | 4.8 | 11.3 | 0.00 | 0.00 | 0.00 | 94 | 1009.6 |
| 20260506124558 | 26 | 71 | 3.2 | 14.5 | 0.00 | 0.00 | 0.00 | 95 | 1009.5 |
| 20260506123055 | 26 | 109 | 4.8 | 12.9 | 0.00 | 0.00 | 0.00 | 95 | 1009.4 |
| 20260506121606 | 25 | 34 | 3.2 | 12.9 | 0.00 | 0.00 | 0.00 | 95 | 1009.3 |
| 20260506120107 | 25 | 132 | 4.8 | 14.5 | 0.00 | 0.00 | 0.00 | 95 | 1009.2 |
| 20260506114558 | 25 | 109 | 4.8 | 14.5 | 0.00 | 0.00 | 0.00 | 95 | 1009.1 |
| 20260506113051 | 26 | 5 | 4.8 | 14.5 | 0.00 | 0.00 | 0.00 | 95 | 1009.0 |
| 20260506111553 | 26 | 77 | 4.8 | 9.7 | 0.00 | 0.00 | 0.00 | 95 | 1008.9 |
| 20260506110050 | 26 | 325 | 3.2 | 14.5 | 0.00 | 0.00 | 0.00 | 95 | 1008.7 |
| 20260506104550 | 26 | 74 | 4.8 | 12.9 | 0.00 | 0.00 | 0.00 | 95 | 1008.6 |
| 20260506103052 | 26 | 63 | 4.8 | 11.3 | 0.00 | 0.00 | 0.00 | 94 | 1008.5 |
| 20260506101547 | 26 | 116 | 4.8 | 14.5 | 0.00 | 0.00 | 0.00 | 95 | 1008.5 |
| 20260506100055 | 26 | 90 | 1.6 | 9.7 | 0.00 | 0.00 | 0.00 | 95 | 1008.3 |
| 20260506094552 | 26 | 0 | 3.2 | 9.7 | 0.00 | 0.00 | 0.00 | 94 | 1008.2 |
| 20260506093108 | 26 | 100 | 3.2 | 12.9 | 0.00 | 0.00 | 0.00 | 94 | 1008.1 |
| 20260506091551 | 26 | 240 | 1.6 | 9.7 | 0.00 | 0.00 | 0.00 | 94 | 1008.0 |
| 20260506090101 | 27 | 81 | 3.2 | 9.7 | 0.00 | 0.00 | 0.00 | 94 | 1007.8 |
| 20260506084555 | 27 | 0 | 3.2 | 12.9 | 0.00 | 0.00 | 0.00 | 95 | 1007.8 |
| 20260506083053 | 27 | 93 | 4.8 | 11.3 | 0.00 | 0.00 | 0.00 | 97 | 1007.7 |
| 20260506081554 | 27 | 68 | 3.2 | 12.9 | 0.00 | 0.00 | 0.00 | 98 | 1007.6 |